Location: Bovenkerk
(52.2915°N, 4.8336°E)
Time: 13:49:47
(UTC+00:00)

Cosmos 1461 - Visible Passes

Search period start: 06 August 2020 00:00
Search period end: 16 August 2020 00:00
Orbit: 503 x 663 km, 65.0° (Epoch: 05 August)

Date Brightness Start Highest point End Pass type
(mag) Time Alt. Az. Time Alt. Az. Time Alt. Az.
06 Aug 5.4 01:41:42 10° SE 01:43:58 14° ESE 01:46:17 10° ENE visible
06 Aug 3.1 03:17:55 10° SW 03:22:18 80° SE 03:26:55 10° NE visible
07 Aug 4.9 01:47:03 14° SSE 01:49:27 21° ESE 01:52:50 10° ENE visible
07 Aug 3.2 03:23:41 10° SW 03:28:05 73° NW 03:32:42 10° NE visible
08 Aug 4.3 01:52:47 20° SSE 01:54:59 30° ESE 01:58:59 10° ENE visible
08 Aug 3.5 03:29:34 10° WSW 03:33:54 53° NW 03:38:28 10° NE visible
09 Aug 3.7 01:58:28 25° S 02:00:36 45° ESE 02:04:58 10° NE visible
10 Aug 5.4 00:27:44 11° ESE 00:28:06 11° ESE 00:29:25 10° E visible
10 Aug 3.2 02:04:07 29° SSW 02:06:16 66° SE 02:10:52 10° NE visible
11 Aug 5.0 00:33:21 17° ESE 00:33:32 17° ESE 00:36:28 10° ENE visible
11 Aug 3.0 02:09:44 29° SW 02:12:01 87° NW 02:16:40 10° NE visible
12 Aug 4.4 00:38:56 25° ESE 00:39:03 25° ESE 00:42:47 10° ENE visible
12 Aug 3.3 02:15:18 25° WSW 02:17:49 63° NW 02:22:27 10° NE visible
13 Aug 3.8 00:44:29 37° SE 00:44:37 37° ESE 00:48:50 10° NE visible
13 Aug 3.8 02:20:51 20° WSW 02:23:41 46° NW 02:28:12 10° NE visible
14 Aug 3.2 00:50:00 53° SE 00:50:16 54° SE 00:54:46 10° NE visible
14 Aug 4.3 02:26:22 15° W 02:29:36 36° NNW 02:33:56 10° NE visible
14 Aug 5.4 23:19:07 12° E 23:19:07 12° E 23:19:56 10° ENE visible
15 Aug 2.9 00:55:29 69° S 00:55:57 79° SE 01:00:36 10° NE visible
15 Aug 4.7 02:31:51 11° W 02:35:34 29° NNW 02:39:40 10° NNE visible
15 Aug 5.0 23:24:34 18° E 23:24:34 18° E 23:26:29 10° ENE visible
